HEBOWX Weather Reports


time (UTC)temp
C
wind
direction
speed
KPH
gust
KPH
rain 1hr
cm
rain 24hr
cm
rain mn
cm
humidity
%
barometer
mb
20260506230533 11 268 1.6 8.0 0.00 0.00 0.00 60 1017.7
20260506230032 11 275 1.6 8.0 0.00 0.00 0.00 53 1017.7
20260506225534 11 309 1.6 8.0 0.00 0.00 0.00 54 1017.9
20260506225032 12 273 1.6 6.4 0.00 0.00 0.00 58 1017.7
20260506224532 12 305 1.6 4.8 0.00 0.00 0.00 59 1017.9
20260506224034 12 294 1.6 9.7 0.00 0.00 0.00 53 1017.9
20260506223532 12 312 1.6 9.7 0.00 0.00 0.00 58 1018.0
20260506223032 12 298 1.6 9.7 0.00 0.00 0.00 58 1018.0
20260506222534 12 33 1.6 9.7 0.00 0.00 0.00 58 1018.0
20260506222034 12 278 3.2 9.7 0.00 0.00 0.00 57 1018.1
20260506221532 12 278 1.6 9.7 0.00 0.00 0.00 57 1018.0
20260506221032 12 280 1.6 8.0 0.00 0.00 0.00 57 1018.1
20260506220532 12 288 1.6 8.0 0.00 0.00 0.00 57 1018.1
20260506220033 12 275 3.2 9.7 0.00 0.00 0.00 56 1018.1
20260506215534 12 267 1.6 9.7 0.00 0.00 0.00 56 1018.0
20260506215032 13 294 1.6 9.7 0.00 0.00 0.00 50 1018.0
20260506214532 13 268 0.0 8.0 0.00 0.00 0.00 50 1018.0
20260506214033 13 280 3.2 6.4 0.00 0.00 0.00 55 1018.0
20260506213532 13 261 1.6 6.4 0.00 0.00 0.00 55 1018.0
20260506213032 13 287 0.0 8.0 0.00 0.00 0.00 48 1018.0
20260506212537 13 277 1.6 8.0 0.00 0.00 0.00 54 1018.0
20260506212032 13 261 1.6 8.0 0.00 0.00 0.00 53 1018.0
20260506211532 13 271 3.2 4.8 0.00 0.00 0.00 54 1018.0
20260506211032 13 268 0.0 8.0 0.00 0.00 0.00 54 1018.0
20260506210532 13 263 0.0 8.0 0.00 0.00 0.00 55 1018.0
20260506210034 13 268 0.0 8.0 0.00 0.00 0.00 55 1018.0
20260506205534 13 277 0.0 6.4 0.00 0.00 0.00 55 1018.0
20260506205032 13 273 0.0 6.4 0.00 0.00 0.00 55 1018.0
20260506204534 13 264 0.0 4.8 0.00 0.00 0.00 55 1018.0
20260506204032 13 292 0.0 4.8 0.00 0.00 0.00 53 1017.9
20260506203532 13 264 1.6 4.8 0.00 0.00 0.00 54 1017.9
20260506203032 13 259 0.0 11.3 0.00 0.00 0.00 54 1017.7
20260506202534 13 254 0.0 11.3 0.00 0.00 0.00 48 1017.7
20260506202032 13 270 0.0 11.3 0.00 0.00 0.00 55 1017.9
20260506201532 13 278 1.6 6.4 0.00 0.00 0.00 54 1017.9
20260506201032 13 268 0.0 3.2 0.00 0.00 0.00 48 1017.9
20260506200532 13 270 0.0 6.4 0.00 0.00 0.00 55 1017.7
20260506200032 13 278 3.2 6.4 0.00 0.00 0.00 56 1017.7
20260506195534 13 294 0.0 6.4 0.00 0.00 0.00 55 1017.7
20260506195033 13 253 3.2 3.2 0.00 0.00 0.00 55 1018.0
20260506194532 12 267 0.0 8.0 0.00 0.00 0.00 56 1018.0
20260506194033 12 284 4.8 8.0 0.00 0.00 0.00 56 1018.0
20260506193532 12 277 1.6 8.0 0.00 0.00 0.00 56 1017.9
20260506193032 12 281 4.8 8.0 0.00 0.00 0.00 56 1017.9
20260506192532 12 292 3.2 8.0 0.00 0.00 0.00 57 1017.9
20260506192034 12 268 0.0 8.0 0.00 0.00 0.00 57 1017.9
20260506191534 12 278 0.0 6.4 0.00 0.00 0.00 57 1017.7
20260506191033 12 284 1.6 9.7 0.00 0.00 0.00 57 1017.9
20260506190532 12 280 3.2 9.7 0.00 0.00 0.00 57 1017.7
20260506190034 12 264 1.6 9.7 0.00 0.00 0.00 57 1017.6
20260506185534 12 271 3.2 9.7 0.00 0.00 0.00 56 1017.7
20260506185032 12 281 4.8 9.7 0.00 0.00 0.00 57 1017.6
20260506184532 12 277 1.6 9.7 0.00 0.00 0.00 57 1017.7
20260506184032 12 281 4.8 8.0 0.00 0.00 0.00 57 1017.6
20260506183533 12 281 3.2 8.0 0.00 0.00 0.00 57 1017.6
20260506183032 12 266 0.0 6.4 0.00 0.00 0.00 57 1017.6
20260506182534 12 261 3.2 6.4 0.00 0.00 0.00 57 1017.6
20260506182032 13 313 1.6 3.2 0.00 0.00 0.00 57 1017.6
20260506181532 12 0 0.0 0.0 0.00 0.00 0.00 58 1017.5
20260506181032 12 0 0.0 0.0 0.00 0.00 0.00 58 1017.5
20260506180532 12 0 0.0 0.0 0.00 0.00 0.00 58 1017.4
20260506180033 13 0 0.0 0.0 0.00 0.00 0.00 58 1017.4
20260506175534 13 0 0.0 0.0 0.00 0.00 0.00 58 1017.4
20260506175032 13 0 0.0 0.0 0.00 0.00 0.00 58 1017.3
20260506174532 13 0 0.0 0.0 0.00 0.00 0.00 58 1017.3
20260506174033 13 0 0.0 0.0 0.00 0.00 0.00 58 1017.3
20260506173531 13 81 0.0 0.0 0.00 0.00 0.00 59 1017.2
20260506173032 12 0 0.0 0.0 0.00 0.00 0.00 59 1017.2
20260506172533 12 0 0.0 1.6 0.00 0.00 0.00 60 1017.2
20260506172031 12 0 0.0 1.6 0.00 0.00 0.00 57 1017.2
20260506171531 12 98 0.0 1.6 0.00 0.00 0.00 60 1017.2
20260506171033 12 0 0.0 1.6 0.00 0.00 0.00 60 1017.2
20260506170531 13 0 0.0 1.6 0.00 0.00 0.00 59 1017.2
20260506170031 13 198 0.0 1.6 0.00 0.00 0.00 60 1017.1
20260506165533 13 198 0.0 0.0 0.00 0.00 0.00 61 1017.1
20260506165032 13 198 0.0 0.0 0.00 0.00 0.00 60 1017.0
20260506164531 12 35 0.0 3.2 0.00 0.00 0.00 61 1017.0
20260506164033 12 0 0.0 3.2 0.00 0.00 0.00 61 1016.9
20260506163531 12 116 0.0 3.2 0.00 0.00 0.00 61 1017.0
20260506163032 12 33 0.0 3.2 0.00 0.00 0.00 62 1017.0
20260506162533 12 184 0.0 3.2 0.00 0.00 0.00 61 1017.0
20260506162033 12 127 0.0 3.2 0.00 0.00 0.00 61 1017.0
20260506161531 12 252 0.0 1.6 0.00 0.00 0.00 62 1016.9
20260506161031 12 0 0.0 1.6 0.00 0.00 0.00 63 1017.0
20260506160531 12 0 0.0 1.6 0.00 0.00 0.00 62 1017.1
20260506160031 12 252 0.0 1.6 0.00 0.00 0.00 63 1017.0
20260506155534 12 252 0.0 0.0 0.00 0.00 0.00 65 1016.9
20260506155032 12 252 0.0 0.0 0.00 0.00 0.00 65 1016.9
20260506154531 12 0 0.0 0.0 0.00 0.00 0.00 65 1016.7
20260506154034 12 0 0.0 0.0 0.00 0.00 0.00 66 1016.7
20260506153531 11 0 0.0 0.0 0.00 0.00 0.00 66 1016.7
20260506153032 11 0 0.0 0.0 0.00 0.00 0.00 66 1016.9
20260506152533 11 0 0.0 0.0 0.00 0.00 0.00 67 1016.7
20260506152032 11 0 0.0 0.0 0.00 0.00 0.00 70 1016.7
20260506151531 11 0 0.0 0.0 0.00 0.00 0.00 70 1016.5
20260506151032 10 0 0.0 0.0 0.00 0.00 0.00 70 1016.5
20260506150531 10 0 0.0 0.0 0.00 0.00 0.00 71 1016.4
20260506150031 10 0 0.0 0.0 0.00 0.00 0.00 71 1016.3
20260506145533 10 0 0.0 0.0 0.00 0.00 0.00 71 1016.2
20260506145031 10 0 0.0 0.0 0.00 0.00 0.00 72 1016.1
20260506144531 9 0 0.0 0.0 0.00 0.00 0.00 72 1016.2
20260506144031 9 0 0.0 0.0 0.00 0.00 0.00 72 1016.3
20260506143531 9 252 0.0 0.0 0.00 0.00 0.00 72 1016.3
20260506143031 9 0 0.0 0.0 0.00 0.00 0.00 71 1016.3
20260506142533 8 0 0.0 0.0 0.00 0.00 0.00 71 1016.4
20260506142034 8 0 0.0 0.0 0.00 0.00 0.00 71 1016.3
20260506141531 8 0 0.0 3.2 0.00 0.00 0.00 70 1016.2
20260506141032 8 0 0.0 3.2 0.00 0.00 0.00 69 1016.2
20260506140531 8 280 0.0 3.2 0.00 0.00 0.00 66 1016.3
20260506140032 8 285 0.0 8.0 0.00 0.00 0.00 66 1016.1
20260506135537 8 308 0.0 8.0 0.00 0.00 0.00 63 1016.3
20260506135032 8 270 0.0 8.0 0.00 0.00 0.00 64 1016.1
20260506134531 8 0 0.0 6.4 0.00 0.00 0.00 63 1016.0
20260506134033 8 256 0.0 6.4 0.00 0.00 0.00 62 1015.7
20260506133531 8 274 0.0 3.2 0.00 0.00 0.00 61 1015.7
20260506133031 9 0 0.0 4.8 0.00 0.00 0.00 59 1015.9
20260506132535 9 0 0.0 4.8 0.00 0.00 0.00 59 1015.6
20260506132032 9 264 0.0 4.8 0.00 0.00 0.00 57 1015.6
20260506131531 10 0 3.2 3.2 0.00 0.00 0.00 56 1015.7
20260506131032 10 0 0.0 0.0 0.00 0.00 0.00 51 1015.6
20260506130531 10 0 0.0 0.0 0.00 0.00 0.00 51 1015.6
20260506130031 10 0 0.0 0.0 0.00 0.00 0.00 52 1015.6
20260506125533 10 0 0.0 0.0 0.00 0.00 0.00 53 1015.5
20260506125031 10 0 0.0 0.0 0.00 0.00 0.00 55 1015.6
20260506124531 10 0 0.0 0.0 0.00 0.00 0.00 53 1015.5
20260506124031 10 0 0.0 0.0 0.00 0.00 0.00 55 1015.4
20260506123531 10 0 0.0 0.0 0.00 0.00 0.00 54 1015.5
20260506123031 10 0 0.0 0.0 0.00 0.00 0.00 56 1015.4
20260506122533 10 0 0.0 0.0 0.00 0.00 0.00 57 1015.3
20260506122032 10 0 0.0 0.0 0.00 0.00 0.00 60 1015.4
20260506121532 10 0 0.0 0.0 0.00 0.00 0.00 60 1015.4
20260506121032 10 0 0.0 0.0 0.00 0.00 0.00 60 1015.3
20260506120532 10 316 0.0 3.2 0.00 0.00 0.00 63 1015.3
20260506120037 10 334 0.0 3.2 0.00 0.00 0.00 63 1015.4
20260506115533 9 317 1.6 3.2 0.00 0.00 0.00 61 1015.2
20260506115033 9 355 0.0 1.6 0.00 0.00 0.00 64 1015.3
20260506114531 9 323 0.0 1.6 0.00 0.00 0.00 65 1015.3
20260506114033 8 309 0.0 1.6 0.00 0.00 0.00 65 1015.3
20260506113531 8 0 0.0 8.0 0.00 0.00 0.00 62 1015.3
20260506113031 8 289 0.0 8.0 0.00 0.00 0.00 62 1015.3
20260506112533 8 273 1.6 8.0 0.00 0.00 0.00 63 1015.2
20260506112031 8 277 3.2 6.4 0.00 0.00 0.00 64 1015.2
20260506111531 7 260 4.8 6.4 0.00 0.00 0.00 67 1015.2
20260506111031 7 0 0.0 0.0 0.00 0.00 0.00 68 1015.1
20260506110531 7 0 0.0 0.0 0.00 0.00 0.00 69 1015.1
20260506110031 7 0 0.0 0.0 0.00 0.00 0.00 68 1015.1
20260506105533 7 0 0.0 0.0 0.00 0.00 0.00 69 1015.0
20260506105032 7 0 0.0 0.0 0.00 0.00 0.00 69 1015.0
20260506104531 7 0 0.0 0.0 0.00 0.00 0.00 69 1015.0
20260506104031 8 0 0.0 0.0 0.00 0.00 0.00 69 1014.8
20260506103531 8 0 0.0 0.0 0.00 0.00 0.00 69 1014.7
20260506103030 8 0 0.0 0.0 0.00 0.00 0.00 69 1014.8
20260506102536 8 0 0.0 0.0 0.00 0.00 0.00 68 1014.6
20260506102031 8 0 0.0 6.4 0.00 0.00 0.00 68 1014.6
20260506101532 8 0 0.0 6.4 0.00 0.00 0.00 69 1014.7
20260506101031 8 261 0.0 6.4 0.00 0.00 0.00 70 1014.6
20260506100530 8 266 3.2 6.4 0.00 0.00 0.00 69 1014.6
20260506100032 8 271 3.2 3.2 0.00 0.00 0.00 68 1014.6
20260506095536 9 0 0.0 0.0 0.00 0.00 0.00 66 1014.5
20260506095030 10 0 0.0 0.0 0.00 0.00 0.00 63 1014.5
20260506094032 10 0 0.0 0.0 0.00 0.00 0.00 66 1014.4
20260506093531 10 0 0.0 0.0 0.00 0.00 0.00 66 1014.3
20260506093031 10 0 0.0 0.0 0.00 0.00 0.00 66 1014.4
20260506092533 10 0 0.0 0.0 0.00 0.00 0.00 66 1014.4
20260506092030 10 0 0.0 0.0 0.00 0.00 0.00 65 1014.3
20260506091530 10 0 0.0 0.0 0.00 0.00 0.00 64 1014.3
20260506091032 10 0 0.0 0.0 0.00 0.00 0.00 64 1014.3
20260506090530 10 0 0.0 0.0 0.00 0.00 0.00 63 1014.3
20260506090030 10 0 0.0 0.0 0.00 0.00 0.00 65 1014.3
20260506085531 10 0 0.0 0.0 0.00 0.00 0.00 65 1014.4
20260506085030 10 0 0.0 0.0 0.00 0.00 0.00 64 1014.3
20260506084530 10 0 0.0 3.2 0.00 0.00 0.00 62 1014.4
20260506084031 10 0 0.0 3.2 0.00 0.00 0.00 62 1014.4
20260506083530 10 204 0.0 3.2 0.00 0.00 0.00 61 1014.4
20260506083030 10 0 0.0 0.0 0.00 0.00 0.00 64 1014.4
20260506082530 10 0 0.0 0.0 0.00 0.00 0.00 64 1014.4
20260506082031 10 0 0.0 0.0 0.00 0.00 0.00 63 1014.4
20260506081532 10 0 0.0 0.0 0.00 0.00 0.00 61 1014.3
20260506081030 11 0 0.0 0.0 0.00 0.00 0.00 62 1014.4
20260506080532 11 0 0.0 0.0 0.00 0.00 0.00 63 1014.3
20260506073030 11 147 0.0 4.8 0.00 0.00 0.00 57 1014.2
20260506072530 11 0 0.0 4.8 0.00 0.00 0.00 57 1014.2
20260506072032 11 212 0.0 4.8 0.00 0.00 0.00 57 1014.1
20260506071530 11 198 1.6 4.8 0.00 0.00 0.00 58 1014.1
20260506071031 11 221 0.0 4.8 0.00 0.00 0.00 58 1014.1
20260506070530 11 211 0.0 4.8 0.00 0.00 0.00 58 1014.0
20260506062031 11 0 1.6 1.6 0.00 0.00 0.00 62 1014.0
20260506061530 11 0 0.0 0.0 0.00 0.00 0.00 63 1013.8
20260506061031 11 0 0.0 3.2 0.00 0.00 0.00 64 1013.8
20260506060530 11 0 0.0 3.2 0.00 0.00 0.00 64 1013.8
20260506051032 11 240 0.0 4.8 0.00 0.00 0.00 62 1013.7
20260506050532 12 0 3.2 3.2 0.00 0.00 0.00 62 1013.7
20260506045030 12 0 0.0 0.0 0.00 0.00 0.00 63 1013.6
20260506044530 12 0 0.0 0.0 0.00 0.00 0.00 63 1013.6
20260506044031 12 0 0.0 0.0 0.00 0.00 0.00 62 1013.6
20260506043530 12 0 0.0 0.0 0.00 0.00 0.00 62 1013.5
20260506043030 12 0 0.0 0.0 0.00 0.00 0.00 63 1013.5
20260506042530 12 0 0.0 0.0 0.00 0.00 0.00 63 1013.5
20260506042031 12 0 0.0 0.0 0.00 0.00 0.00 62 1013.4
20260506041530 12 0 0.0 0.0 0.00 0.00 0.00 62 1013.3
20260506041030 12 0 0.0 0.0 0.00 0.00 0.00 62 1013.3
20260506040532 12 0 0.0 0.0 0.00 0.00 0.00 61 1013.3
20260506040030 12 0 0.0 0.0 0.00 0.00 0.00 61 1013.3
20260506035530 12 0 0.0 0.0 0.00 0.00 0.00 60 1013.3
20260506035031 12 0 0.0 0.0 0.00 0.00 0.00 61 1013.1
20260506034531 12 0 0.0 0.0 0.00 0.00 0.00 65 1013.1
20260506034030 12 0 0.0 0.0 0.00 0.00 0.00 63 1013.0
20260506033530 12 0 0.0 0.0 0.00 0.00 0.00 63 1013.0
20260506033032 12 0 0.0 0.0 0.00 0.00 0.00 62 1012.8
20260506032531 12 0 0.0 0.0 0.00 0.00 0.00 62 1012.8
20260506032030 12 0 0.0 0.0 0.00 0.00 0.00 62 1012.7
20260506031530 12 0 0.0 0.0 0.00 0.00 0.00 61 1012.6
20260506031033 12 0 0.0 0.0 0.00 0.00 0.00 62 1012.6
20260506030530 13 0 0.0 0.0 0.00 0.00 0.00 61 1012.6
20260506030030 13 0 0.0 0.0 0.00 0.00 0.00 1 1012.6
20260506025530 13 0 0.0 0.0 0.00 0.00 0.00 60 1012.5
20260506025031 13 0 0.0 0.0 0.00 0.00 0.00 59 1012.6
20260506024530 13 0 0.0 0.0 0.00 0.00 0.00 60 1012.6
20260506024030 13 0 0.0 0.0 0.00 0.00 0.00 59 1012.5
20260506023530 13 0 0.0 0.0 0.00 0.00 0.00 58 1012.5
20260506023030 13 0 0.0 0.0 0.00 0.00 0.00 58 1012.6
20260506022530 13 0 0.0 0.0 0.00 0.00 0.00 57 1012.6
20260506022030 13 0 0.0 0.0 0.00 0.00 0.00 56 1012.5
20260506021530 14 0 0.0 0.0 0.00 0.00 0.00 56 1012.5
20260506021031 14 0 0.0 0.0 0.00 0.00 0.00 57 1012.5
20260506020530 14 0 0.0 0.0 0.00 0.00 0.00 57 1012.5
20260506020031 14 0 0.0 0.0 0.00 0.00 0.00 57 1012.5
20260506015530 14 0 0.0 0.0 0.00 0.00 0.00 57 1012.5
20260506015032 14 0 0.0 0.0 0.00 0.00 0.00 57 1012.5
20260506014530 14 0 0.0 0.0 0.00 0.00 0.00 57 1012.5
20260506014030 13 0 0.0 0.0 0.00 0.00 0.00 57 1012.5
20260506013530 13 0 0.0 0.0 0.00 0.00 0.00 58 1012.4
20260506013031 13 0 0.0 0.0 0.00 0.00 0.00 58 1012.4
20260506012530 13 0 0.0 0.0 0.00 0.00 0.00 58 1012.4
20260506012031 13 0 0.0 0.0 0.00 0.00 0.00 59 1012.4
20260506011530 12 0 0.0 0.0 0.00 0.00 0.00 59 1012.4
20260506011030 12 0 0.0 0.0 0.00 0.00 0.00 59 1012.5
20260506010530 12 0 0.0 0.0 0.00 0.00 0.00 59 1012.5
20260506010030 12 0 0.0 0.0 0.00 0.00 0.00 59 1012.4
20260506005530 12 0 0.0 0.0 0.00 0.00 0.00 59 1012.4
20260506005030 12 0 0.0 0.0 0.00 0.00 0.00 59 1012.5
20260506004530 12 0 0.0 0.0 0.00 0.00 0.00 58 1012.4
20260506004030 12 0 0.0 0.0 0.00 0.00 0.00 59 1012.4
20260506003529 12 0 0.0 0.0 0.00 0.00 0.00 59 1012.5
20260506003031 12 0 0.0 0.0 0.00 0.00 0.00 59 1012.5
20260506002529 12 0 0.0 0.0 0.00 0.00 0.00 58 1012.5
20260506002030 13 0 0.0 0.0 0.00 0.00 0.00 57 1012.5
20260506001530 13 0 0.0 0.0 0.00 0.00 0.00 57 1012.5
20260506001030 13 0 0.0 0.0 0.00 0.00 0.00 57 1012.5
20260506000529 13 0 0.0 0.0 0.00 0.00 0.00 57 1012.5
20260506000031 13 0 0.0 0.0 0.00 0.00 0.00 57 1012.6
20260505235529 13 0 0.0 0.0 0.00 0.00 0.00 56 1012.6
20260505235030 13 0 0.0 0.0 0.00 0.00 0.00 56 1012.6
20260505234529 13 0 0.0 0.0 0.00 0.00 0.00 56 1012.6
20260505234029 13 0 0.0 0.0 0.00 0.00 0.00 56 1012.6
20260505233529 13 0 0.0 0.0 0.00 0.00 0.00 56 1012.6
20260505233030 13 0 0.0 0.0 0.00 0.00 0.00 56 1012.7
20260505232530 13 0 0.0 0.0 0.00 0.00 0.00 55 1012.7
20260505232031 13 0 0.0 0.0 0.00 0.00 0.00 55 1012.7
20260505231530 13 0 0.0 0.0 0.00 0.00 0.00 56 1012.8
20260505231031 13 0 0.0 0.0 0.00 0.00 0.00 55 1012.8